SCP
0 0 0 0 0 0 0 0 0 0 0 1 1 0 0 0 0 0 0 0 0 0 0 0 0 0 0 0 0 0 0 0 0 0 0 0 0 0 0 0 0 0 0 0
0 0 0 0 0 0 0 0 0 0 0 1 0 0 0 0 0 0 0 0 0 0 0 0 0 0 0 0 0 0 0 0 0 0 0 0 0 0 0 0 0 0 0 0
0 0 0 0 0 0 0 0 0 0 0 0 0 0 0 0 0 0 0 0 0 0 0 0 0 0 0 0 0 0 0 0 0 0 0 0 0 0 0 0 0 0 0 0
0 0 0 0 0 0 0 0 0 0 0 0 0 0 0 0 0 0 0 0 0 0 0 0 0 0 0 0 0 0 0 0 0 0 0 0 0 0 0 0 0 0 0 0
0 0 0 0 0 0 0 0 0 0 0 0 0 0 0 0 0 0 0 0 0 0 0 0 0 0 0 0 0 0 0 0 0 0 0 0 0 0 0 0 0 0 0 0
0 0 0 0 0 0 0 0 0 0 0 0 0 0 0 0 0 0 0 0 0 0 0 0 0 0 0 0 0 0 0 0 0 0 0 0 0 0 0 0 0 0 0 0
0 0 0 0 0 0 0 0 0 0 0 0 0 0 0 0 0 0 0 0 0 0 0 0 0 0 0 0 0 0 0 0 0 0 0 0 0 0 0 0 0 0 0 0
0 0 0 0 0 0 0 0 0 0 0 0 0 0 0 0 0 0 0 0 0 0 0 0 0 0 0 0 0 0 0 0 0 0 0 0 0 0 0 0 0 0 0 0
0 0 0 0 0 0 0 0 0 0 0 0 0 0 0 0 0 0 0 0 0 0 0 0 0 0 0 0 0 0 0 0 0 0 0 0 0 0 0 0 0 0 0 0
0 0 0 0 0 0 0 0 0 0 0 0 0 0 0 0 0 0 0 0 0 0 0 0 0 0 0 0 0 0 0 0 0 0 0 0 0 0 0 0 0 0 0 0
0 0 0 0 0 0 0 0 0 0 0 0 0 0 0 0 0 0 0 0 0 0 0 0 0 0 0 0 0 0 0 0 0 0 0 0 0 0 0 0 0 0 0 0
0 0 0 0 0 0 0 0 0 0 0 0 0 0 0 0 0 0 0 0 0 0 0 0 0 0 0 0 0 0 0 0 0 0 0 0 0 0 0 0 0 0 0 0
0 0 0 0 0 0 0 0 0 0 0 0 0 0 0 0 0 0 0 0 0 0 0 0 0 0 0 0 0 0 0 0 0 0 0 0 0 0 0 0 0 0 0 0
0 0 0 0 0 0 0 0 0 0 0 0 0 0 0 0 0 0 0 0 0 0 0 0 0 0 0 0 0 0 0 0 0 0 0 0 0 0 0 0 0 0 0 0
0 0 0 0 0 0 0 0 0 0 0 0 0 0 0 0 0 0 0 0 0 0 0 0 0 0 0 0 0 0 0 0 0 0 0 0 0 0 0 0 0 0 0 0
0 0 0 0 0 0 0 0 0 0 0 0 0 0 0 0 0 0 0 0 0 0 0 0 0 0 0 0 0 0 0 0 0 0 0 0 0 0 0 0 0 0 0 0
0 0 0 0 0 0 0 0 0 0 0 0 0 0 0 0 0 0 0 0 0 0 0 0 0 0 0 0 0 0 0 0 0 0 0 0 0 0 0 0 0 0 0 0
0 0 0 0 0 0 0 0 0 0 0 0 0 0 0 0 0 0 0 0 0 0 0 0 0 0 0 0 0 0 0 0 0 0 0 0 0 0 0 0 0 0 0 0
0 0 0 0 0 0 0 0 0 0 0 0 0 0 0 0 0 0 0 0 0 0 0 0 0 0 0 0 0 0 0 0 0 0 0 0 0 0 0 0 0 0 0 0
0 0 0 0 0 0 0 0 0 0 0 0 0 0 0 0 0 0 0 0 0 0 0 0 0 0 0 0 0 0 0 0 0 0 0 0 0 0 0 0 0 0 0 0
0 0 0 0 0 0 0 0 0 0 0 0 0 0 0 0 0 0 0 0 0 0 0 0 0 0 0 0 0 0 0 0 0 0 0 0 0 0 0 0 0 0 0 0
0 0 0 0 0 0 0 0 0 0 0 0 0 0 0 0 0 0 0 0 0 0 0 0 0 0 0 0 0 0 0 0 0 0 0 0 0 0 0 0 0 0 0 0
0 0 0 0 0 0 0 0 0 0 0 0 0 0 0 0 0 0 0 0 0 0 0 0 0 0 0 0 0 0 0 0 0 0 0 0 0 0 0 0 0 0 0 0
0 0 0 0 0 0 0 0 0 0 0 0 0 0 0 0 0 0 0 0 0 0 0 0 0 0 0 0 0 0 0 0 0 0 0 0 0 0 0 0 0 0 0 0
0 0 0 0 0 0 0 0 0 0 0 0 0 0 0 0 0 0 0 0 0 0 0 0 0 0 0 0 0 0 0 0 0 0 0 0 0 0 0 0 0 0 0 0
0 0 0 0 0 0 0 0 0 0 0 0 0 0 0 0 0 0 0 0 0 0 0 0 0 0 0 0 0 0 0 0 0 0 0 0 0 0 0 0 0 0 0 0
0 0 0 0 0 0 0 0 0 0 0 0 0 -0 -0 0 0 0 0 0 0 0 0 0 0 0 0 0 0 0 0 0 0 0 0 0 0 0 0 0 0 0 0 0
Wind_Speed
3 3 1 2 3 4 4 4 6 8 10 10 10 11 11 11 12 12 11 11 11 10 9 8 8 8 8 8 7 8 8 9 8 7 7 7 6 6 6 6 6 5 6 6
3 2 3 5 6 6 7 7 9 11 6 7 10 9 10 11 12 12 11 11 11 10 9 8 8 7 7 7 6 6 8 7 6 6 6 5 5 4 5 4 4 5 5 5
3 4 5 5 3 3 5 5 8 6 7 12 11 10 11 11 11 11 11 11 10 9 8 8 7 7 7 6 6 6 6 6 5 5 4 4 4 4 3 3 3 3 3 4
1 4 3 2 2 9 10 6 5 9 11 10 10 8 6 8 10 11 10 9 9 8 7 7 6 6 6 6 6 6 5 4 4 4 4 3 3 3 2 1 1 1 1 2
3 3 2 1 2 5 7 4 5 12 12 11 12 9 6 5 8 9 9 8 7 7 7 6 6 6 6 5 5 5 5 4 3 4 4 3 2 1 0 1 1 1 1 2
3 4 2 1 0 7 10 5 5 11 13 13 9 6 5 6 9 10 9 8 7 7 7 6 5 6 7 6 6 5 4 4 3 3 3 2 1 0 0 1 1 1 1 1
3 3 1 2 1 3 3 6 8 9 12 9 4 5 9 10 9 9 9 9 8 8 6 5 5 6 7 6 5 4 4 4 3 2 2 2 1 1 1 2 2 2 2 1
3 3 3 5 2 3 4 6 9 9 9 8 10 12 12 11 10 10 9 8 8 7 6 4 5 6 6 4 3 4 4 3 2 1 1 2 3 3 4 4 4 3 3 2
4 4 3 1 5 5 8 10 7 8 10 13 13 12 11 10 9 9 8 7 6 7 6 4 4 6 5 3 3 4 3 2 2 1 2 2 3 4 4 4 3 3 2 2
5 4 5 7 8 7 9 10 10 12 13 14 13 12 11 10 8 8 7 7 6 7 6 4 4 4 4 3 3 4 3 2 1 2 2 3 3 3 3 3 3 3 3 2
6 6 7 6 9 12 13 14 14 12 12 12 13 12 10 9 8 7 6 5 6 6 5 4 4 4 3 3 4 3 2 2 1 2 2 3 3 3 3 1 2 3 1 1
8 10 8 7 9 15 15 13 14 14 11 10 10 10 9 8 7 7 6 5 6 5 5 5 4 4 3 3 4 4 2 1 1 2 2 3 3 3 4 2 2 3 2 2
9 10 10 12 12 13 12 12 12 12 11 11 8 9 8 7 6 6 6 6 6 6 5 5 4 4 4 4 4 4 3 2 1 2 3 3 3 3 1 2 3 2 2 3
18 17 14 11 12 12 15 13 12 11 10 10 8 8 8 7 7 7 7 6 6 6 5 5 5 4 4 4 4 3 3 2 2 2 3 3 3 3 2 2 1 3 4 5
13 14 15 14 13 14 14 14 13 11 10 9 9 9 9 8 7 6 6 5 5 5 4 5 4 4 4 4 4 4 3 2 2 2 3 3 3 3 2 2 1 1 2 4
14 16 17 17 16 15 15 15 13 11 10 9 9 9 8 8 7 6 5 6 6 5 4 4 4 3 3 4 4 3 2 4 4 3 3 3 3 3 3 2 1 1 0 1
17 16 18 17 16 15 14 13 12 11 11 10 9 9 8 7 6 5 5 5 6 5 4 4 3 2 3 4 4 3 2 2 4 4 3 3 3 3 3 3 2 2 1 1
16 15 16 17 16 15 14 13 12 12 11 10 10 9 8 8 7 6 5 5 4 3 3 4 3 3 3 3 3 3 2 2 2 3 3 3 3 3 3 3 3 2 1 1
16 16 15 15 14 14 13 12 12 12 11 10 10 9 8 7 6 5 5 5 6 4 3 3 3 3 1 2 3 2 3 3 3 3 3 4 3 2 3 2 2 2 1 1
15 17 16 15 14 13 13 13 12 11 10 10 9 8 7 6 6 6 5 4 5 5 5 3 2 1 0 1 2 2 3 4 4 4 3 3 3 3 2 2 3 2 1 1
18 17 16 15 14 14 14 14 13 11 10 10 9 8 7 6 6 6 5 3 3 4 4 4 2 1 1 1 2 1 2 3 4 4 4 4 4 3 3 3 2 2 2 1
16 15 16 15 14 13 12 12 12 12 10 9 9 8 7 6 6 5 4 4 5 6 4 2 2 2 2 1 1 1 3 4 4 4 4 4 4 4 3 3 2 2 1 1
14 13 14 15 15 13 12 11 12 11 10 9 9 9 8 6 5 5 4 3 4 6 4 3 4 4 3 1 1 2 3 4 4 4 4 4 4 4 4 3 3 2 2 2
13 13 14 13 13 13 12 11 10 9 9 8 8 8 7 5 3 3 4 7 8 7 4 4 6 5 3 1 1 1 3 4 4 4 4 4 4 4 4 3 3 2 3 3
13 13 13 16 14 11 11 10 10 8 8 6 7 7 6 6 6 5 5 6 9 7 4 5 7 5 2 0 1 3 4 4 5 5 5 5 4 4 4 3 3 3 3 3
13 12 12 12 10 9 9 9 7 7 6 6 5 5 4 4 6 6 5 6 8 7 5 4 4 3 2 1 2 3 4 4 5 4 5 5 5 5 4 4 5 4 4 4
12 10 9 9 9 9 9 8 8 7 7 7 6 5 5 6 6 6 7 5 5 5 4 4 4 4 3 3 3 3 4 4 4 4 4 4 4 4 5 5 4 4 4 4
Wind_Direction
231 246 262 290 352 28 90 142 145 149 146 158 150 138 132 127 124 119 114 110 107 104 98 93 90 88 87 87 85 87 87 85 82 81 80 79 75 71 69 69 70 68 67 60
360 20 53 51 52 61 70 86 110 118 109 130 128 127 133 136 134 128 124 120 117 113 109 105 103 102 98 96 93 94 93 90 88 86 84 80 78 75 71 68 66 69 69 65
341 0 58 25 10 77 80 95 131 143 145 141 139 143 145 142 135 131 129 126 123 120 119 118 117 116 113 112 105 99 98 98 97 95 90 86 90 85 80 79 79 79 79 73
94 52 77 285 79 108 95 66 92 112 130 137 130 117 111 129 133 131 130 126 123 122 119 118 119 118 116 110 108 106 104 101 100 98 94 90 87 85 85 96 105 113 116 100
107 94 111 150 173 148 116 84 115 126 127 119 118 101 91 110 123 125 124 124 123 123 121 120 121 122 114 109 110 111 111 110 108 105 101 96 90 79 74 100 114 169 160 136
120 124 160 265 46 128 103 115 152 140 141 142 136 136 150 135 120 117 117 117 118 116 112 113 118 117 112 112 111 116 121 119 115 112 112 112 108 75 9 106 124 126 114 129
113 112 130 310 214 129 124 187 160 150 150 151 148 144 135 127 119 119 118 119 118 116 115 118 119 112 112 118 130 141 131 122 117 115 124 117 69 37 47 64 72 74 80 66
104 111 237 305 46 123 168 129 134 137 142 129 117 118 122 124 123 123 120 120 120 118 114 110 113 113 115 130 147 131 122 123 123 116 100 88 66 48 51 64 71 63 64 49
134 177 222 60 104 119 121 120 123 129 130 126 124 127 126 125 127 126 126 124 121 121 116 112 119 122 128 155 143 125 120 123 120 93 60 74 78 71 60 61 72 63 69 66
94 114 110 99 98 95 106 112 118 125 127 128 126 129 127 128 127 126 125 126 124 124 124 129 139 141 153 160 138 128 132 148 143 108 85 75 75 84 84 74 75 70 71 67
102 131 104 98 113 114 109 111 114 117 121 125 127 130 130 130 131 131 130 129 131 135 142 154 155 153 167 162 137 131 136 145 140 126 119 100 80 73 96 96 143 132 129 133
178 179 146 147 137 127 122 124 127 125 118 122 126 127 127 130 132 135 138 137 139 148 155 165 165 172 182 171 153 147 150 170 179 157 137 128 116 72 48 90 88 105 150 178
141 136 125 129 129 126 125 128 128 126 127 127 124 128 128 129 133 134 138 141 151 161 166 168 169 184 196 190 170 163 172 184 178 156 153 153 147 142 120 348 338 319 299 298
123 119 117 126 130 129 128 125 123 120 124 127 127 127 125 125 131 137 149 158 159 158 164 168 173 193 200 186 169 164 167 174 157 157 160 162 165 168 163 158 322 318 312 307
125 127 129 128 124 125 126 126 125 125 125 124 127 128 129 133 143 153 161 157 148 154 165 170 180 206 204 172 162 161 156 158 140 141 146 145 148 152 155 160 181 281 327 332
121 121 126 130 132 133 133 134 134 134 133 131 133 136 139 143 147 150 151 145 145 164 176 171 183 205 182 155 153 153 167 171 152 139 136 133 134 137 143 149 152 154 309 312
133 139 140 141 142 142 142 142 141 140 139 139 143 142 137 134 135 144 156 158 156 164 166 156 163 161 150 151 157 164 164 159 144 134 143 147 146 150 154 154 158 173 220 250
146 147 148 147 147 146 145 143 142 143 144 146 143 138 139 143 154 168 172 158 138 129 146 155 142 112 124 147 154 155 156 152 149 151 151 151 156 156 151 154 163 175 226 290
140 142 143 144 144 144 144 144 145 145 145 144 144 148 155 162 168 171 162 147 142 154 199 191 135 102 101 152 145 148 155 155 158 159 154 147 138 135 142 151 155 158 158 152
143 145 145 144 143 143 144 144 144 144 146 145 146 149 155 164 160 152 145 154 181 189 192 179 124 80 168 163 141 143 150 157 158 158 150 144 143 142 144 146 142 138 140 146
147 148 148 147 146 145 146 146 146 147 149 149 150 157 163 165 156 146 139 158 218 192 172 168 148 142 155 155 97 127 153 155 156 157 155 152 146 142 138 136 138 147 154 149
149 148 147 146 144 144 146 146 147 149 149 151 153 152 150 154 158 158 167 179 190 174 162 171 178 180 167 116 81 138 158 159 155 151 151 153 151 151 157 157 158 158 147 136
148 146 146 147 146 146 145 148 150 151 153 155 156 157 158 163 161 154 176 205 175 170 162 176 187 183 159 97 85 121 149 157 158 158 160 161 161 161 165 168 172 163 145 138
144 145 145 144 141 143 148 153 152 153 155 156 164 165 159 154 172 192 175 176 176 168 167 186 189 190 161 111 112 154 160 161 160 159 159 160 163 165 169 173 172 157 150 148
144 142 144 147 151 155 155 152 148 152 152 159 170 173 166 163 168 183 173 171 174 168 175 197 204 197 167 151 171 165 160 160 159 158 158 160 165 170 174 174 169 163 160 161
147 150 153 156 155 154 155 154 155 159 157 161 172 174 164 159 157 158 164 175 180 181 183 196 206 197 179 189 166 163 156 153 151 155 162 163 166 167 169 171 168 167 169 173
143 144 146 148 152 156 157 158 160 165 166 165 171 174 164 159 161 169 174 180 186 193 198 202 202 193 192 198 196 186 174 166 162 161 161 162 164 169 173 171 171 173 173 172